STARLINK-32537, 61923

Orbit data source: Space-Track

STARLINK-32537, 61923 is a payload satellite owned by SpaceX/Seattle (US) in LEO that was launched on Mon, 11 Nov 2024 UTC via an FALCON 9 launch vehicle from the Air Force Eastern Test Range (AFETR). Payload-class satellites include a variety of spacecraft equipped with specific instruments for various scientific and technological missions. These include communications satellites like Starlink; space stations such as the ISS; scientific satellites like the Hubble; Earth observation satellites from companies like Planet Labs, Umbra, and HawkEye 360; GPS; miniature CubeSats for education and research; and military/defense satellites.

Loading next visibility...
Identifier
61923, 2024-207M
Orbit
LEO
Last TLE update
16 hours ago
Origin
Manufacturer
SpaceX/Seattle
Mission
Operational Commercial Communications
Bus & Motor
STARLINK V2M, Unknown motor
Mass
730 kg wet, ~700 kg dry
Launch date (UTC)
2024-11-11 (8 months ago)
Launch vehicle
FALCON 9
Launch site
Air Force Eastern Test Range (AFETR)
Object type
Payload
Rocket body
Debris
Shape & HBR
Box + 2 Pan, 29 m
Radar Cross Section
36.964 m², Large (>1 m²)

Expand to show TLE details & history

TLE from 16 hours ago
0 STARLINK-32537
1 61923U 24207M   25186.18129357  .00017527  00000-0  64478-3 0  9998
2 61923  42.9957 243.4468 0000971 255.4822 104.5922 15.27586360 36820
Epoch: 2025-07-05T04:21Z
TLE epoch observation values (Epoch: 2025-07-05T04:21:03.764Z)
Latitude
-0.00001°
Longitude
-105.24192°
Altitude
482.973 km
Speed
7.626 km/s
True Right ascension
16h 13m 47s
True Declination
0° 00' 00"
Sunlit
Object was in full shadow at epoch
Visualization orbit readout
Latitude
42.89765°
Longitude
-26.68585°
Altitude
486.715 km
Speed
7.627 km/s
Apparent Right ascension
20h 54m 44s
Apparent Declination
3° 22' 32"
Sunlit
Object is in daylight
Visualization observer readout
Local Sidereal Time
08:20:31
Azimuth
347.658° N
Elevation
-46.001°
Doppler factor
1
Orbital elements
Apogee altitude
485.642 km
Perigee altitude
484.31 km
Semi-major axis
6,863.113 km
Eccentricity
0.0001
Inclination
42.9957°
RAAN
243.4468°
Arg. of periapsis
255.4822°
True anomaly
Unknown
Mean anomaly
104.5922°
Eccentric anomaly
Unknown
Mean motion
3.81735 °/min
Orbital period
94.31 mins
BSTAR
0.00064478
Loading maneuver chart data...
Loading SW <> Apogee altitude chart data...
Loading historical data...
Loading historical data...
Loading historical data...
Loading historical data...
Loading historical data...
Loading historical data...
Loading historical data...

STARLINK-32537 Visibility forecast

Observer location: undefined°, undefined°

Span
Click to sort rows by Start time (UTC) header in descending order
Start Az.
Max El. time (UTC)
Max El. Az.
Max El.
End time (UTC)
End Az.
5 mins2025-07-06 07:15:39.820Z220.625° SW2025-07-06 07:17:39.820Z162.273° S37.339°2025-07-06 07:20:39.820Z81.445° E
5 mins2025-07-06 08:54:39.820Z277.612° WNW2025-07-06 08:56:39.820Z343.485° N40.599°2025-07-06 08:59:39.820Z68.708° E
5 mins2025-07-06 10:33:39.820Z294.673° NW2025-07-06 10:35:39.820Z344.81° N39.577°2025-07-06 10:38:39.820Z85.224° E
5 mins2025-07-06 12:12:39.820Z275.431° WNW2025-07-06 12:14:39.820Z223.296° SW37.906°2025-07-06 12:17:39.820Z132.861° SE
|